Location: Colebrook
(42.0017°N, 73.0973°W)
Time: 14:33:03
(UTC-04:00)

Envisat - Pass Details

Date: 05 October 2021
Orbit: 764 x 766 km, 98.2° (Epoch: 22 October)

Event Time Altitude Azimuth Distance (km) Brightness Sun altitude
Rises 05:26:20 0° 20° (NNE) 3,239 6.7 -17.1°
Reaches altitude 10° 05:28:48 10° 29° (NNE) 2,308 6.0 -16.6°
Maximum altitude 05:33:33 39° 97° (E) 1,141 4.5 -15.7°
Drops below altitude 10° 05:38:15 10° 166° (SSE) 2,292 5.6 -14.9°
Sets 05:40:41 0° 174° (S) 3,214 6.2 -14.4°
